Date String (YYYY-MM-DD hh:mm:ss) UTC,Instrument flags,absolute air pressure of the measurement (hPa),sample flow rate (lpm),inlet stack bypass flow (lpm),air temperature of the measurement (°C),ambient temperature measured by the external sensor (°C),aerosol sample conditioner tube jacket temperature (°C),OPC LED temperature (°C),internal box temperature (°C),relative humidity of the measurement (%),span deviation,mass concentration of particles derived from Lorenz-Mie calculation of OPC scattering (μg/m³),mass concentration of particles derived from Lorenz-Mie calculation of OPC scattering (μg/m³),mass concentration of particles derived from Lorenz-Mie calculation of OPC scattering (μg/m³)
DateTimeUTC,F1_M11,P_M11,Q1_M11,Q2_M11,T1_M11,T2_M11,T3_M11,T4_M11,T5_M11,U1_M11,ZSPAN_M11,X0_M11,X2_M11,X1_M11
2024-05-06 17:00:00,SystemResetWarning,0811.2,5.00,000.00,020.7,020.0,000.0,029.1,022.4,013.7,0000.0,0011.13,0001.13,0000.17
2024-05-06 17:01:00,SystemResetWarning,0811.2,5.00,000.00,020.7,020.0,000.0,029.1,022.5,013.7,0000.0,0010.22,0001.09,0000.17
2024-05-06 17:02:00,SystemResetWarning,0811.2,5.01,000.00,020.7,020.0,000.0,029.1,022.4,014.2,0000.0,0010.15,0001.10,0000.17
2024-05-06 17:03:00,SystemResetWarning,0811.2,5.00,000.00,020.7,020.0,000.0,029.1,022.4,014.2,0000.0,0010.55,0001.04,0000.17
2024-05-06 17:04:00,SystemResetWarning,0811.0,5.01,000.00,020.7,020.0,000.0,029.1,022.4,014.0,0000.0,0009.43,0001.00,0000.17
2024-05-06 17:05:00,SystemResetWarning,0810.9,4.98,000.00,020.7,020.0,000.0,029.0,022.4,013.9,0000.0,0008.11,0000.96,0000.16
2024-05-06 17:06:00,SystemResetWarning,0811.3,5.00,000.00,020.7,020.0,000.0,029.0,022.4,014.1,0000.0,0007.39,0000.95,0000.17
2024-05-06 17:07:00,SystemResetWarning,0811.2,5.00,000.00,020.7,020.0,000.0,029.0,022.4,014.3,0000.0,0007.27,0000.97,0000.17
2024-05-06 17:08:00,SystemResetWarning,0811.3,5.00,000.00,020.7,020.0,000.0,029.0,022.4,013.8,0000.0,0007.20,0000.98,0000.18
2024-05-06 17:09:00,SystemResetWarning,0811.2,5.00,000.00,020.7,020.0,000.0,029.0,022.4,013.9,0000.0,0006.83,0000.96,0000.18
2024-05-06 17:10:00,SystemResetWarning,0810.9,5.00,000.00,020.7,020.0,000.0,029.0,022.4,013.8,0000.0,0007.10,0000.97,0000.18
2024-05-06 17:11:00,SystemResetWarning,0810.8,5.00,000.00,020.7,020.0,000.0,029.0,022.4,013.3,0000.0,0007.57,0001.01,0000.18
2024-05-06 17:12:00,SystemResetWarning,0811.2,5.01,000.00,020.7,020.0,000.0,029.0,022.4,013.4,0000.0,0008.19,0001.07,0000.18
2024-05-06 17:13:00,SystemResetWarning,0811.1,5.00,000.00,020.7,019.9,000.0,029.0,022.4,013.9,0000.0,0008.52,0001.07,0000.19
2024-05-06 17:14:00,SystemResetWarning,0811.2,5.01,000.00,020.7,019.9,000.0,029.0,022.4,013.7,0000.0,0008.26,0001.11,0000.19
2024-05-06 17:15:00,SystemResetWarning,0810.8,4.99,000.00,020.7,019.9,000.0,029.0,022.4,013.4,0000.0,0008.45,0001.15,0000.20
2024-05-06 17:16:00,SystemResetWarning,0811.1,5.00,000.00,020.7,019.9,000.0,029.0,022.4,013.0,0000.0,0009.50,0001.17,0000.20
2024-05-06 17:17:00,SystemResetWarning,0811.3,5.01,000.00,020.7,019.9,000.0,029.0,022.4,013.5,0000.0,0010.62,0001.23,0000.20
2024-05-06 17:18:00,SystemResetWarning,0811.1,5.00,000.00,020.7,019.9,000.0,029.0,022.3,013.9,0000.0,0011.30,0001.31,0000.20
2024-05-06 17:19:00,SystemResetWarning,0811.1,4.99,000.00,020.7,019.9,000.0,029.0,022.4,013.9,0000.0,0011.77,0001.31,0000.19
2024-05-06 17:20:00,SystemResetWarning,0810.8,5.00,000.00,020.7,019.9,000.0,029.0,022.4,013.5,0000.0,0012.00,0001.46,0000.19
2024-05-06 17:21:00,SystemResetWarning,0810.7,5.02,000.00,020.6,019.9,000.0,029.0,022.3,013.3,0000.0,0012.38,0001.63,0000.20
2024-05-06 17:22:00,SystemResetWarning,0810.7,5.01,000.00,020.6,019.9,000.0,029.0,022.3,013.6,0000.0,0012.57,0001.75,0000.21
2024-05-06 17:23:00,SystemResetWarning,0811.0,5.00,000.00,020.6,019.8,000.0,029.0,022.3,013.9,0000.0,0012.46,0001.77,0000.22
2024-05-06 17:24:00,SystemResetWarning,0811.2,4.99,000.00,020.6,019.8,000.0,029.0,022.3,014.2,0000.0,0013.01,0001.89,0000.23
2024-05-06 17:25:00,SystemResetWarning,0811.2,5.00,000.00,020.6,019.8,000.0,029.0,022.3,014.4,0000.0,0013.05,0001.95,0000.23
2024-05-06 17:26:00,SystemResetWarning,0811.2,4.99,000.00,020.6,019.8,000.0,029.0,022.3,014.0,0000.0,0012.78,0001.97,0000.23
2024-05-06 17:27:00,SystemResetWarning,0810.8,5.00,000.00,020.6,019.8,000.0,029.0,022.3,013.9,0000.0,0012.73,0001.96,0000.22
2024-05-06 17:28:00,SystemResetWarning,0811.1,5.02,000.00,020.6,019.8,000.0,028.9,022.3,013.9,0000.0,0012.20,0001.87,0000.21
2024-05-06 17:29:00,SystemResetWarning,0811.3,4.99,000.00,020.6,019.8,000.0,028.9,022.3,014.1,0000.0,0012.30,0001.79,0000.21
2024-05-06 17:30:00,SystemResetWarning,0811.2,4.99,000.00,020.6,019.8,000.0,028.9,022.3,014.3,0000.0,0012.72,0001.76,0000.21
2024-05-06 17:31:00,SystemResetWarning,0811.4,5.01,000.00,020.6,019.8,000.0,028.9,022.2,014.4,0000.0,0012.89,0001.63,0000.20
2024-05-06 17:32:00,SystemResetWarning,0811.3,5.02,000.00,020.6,019.8,000.0,028.9,022.2,014.0,0000.0,0012.50,0001.50,0000.19
2024-05-06 17:33:00,SystemResetWarning,0811.3,4.99,000.00,020.6,019.8,000.0,028.9,022.2,014.2,0000.0,0012.17,0001.36,0000.19
2024-05-06 17:34:00,SystemResetWarning,0810.9,4.99,000.00,020.6,019.8,000.0,028.9,022.2,014.0,0000.0,0012.27,0001.28,0000.18
2024-05-06 17:35:00,SystemResetWarning,0811.0,5.01,000.00,020.6,019.8,000.0,028.9,022.3,013.7,0000.0,0011.23,0001.12,0000.16
2024-05-06 17:36:00,SystemResetWarning,0810.9,5.00,000.00,020.6,019.8,000.0,028.9,022.3,013.6,0000.0,0011.10,0001.10,0000.16
2024-05-06 17:37:00,SystemResetWarning,0811.0,5.01,000.00,020.6,019.8,000.0,028.9,022.3,013.7,0000.0,0011.22,0001.12,0000.16
2024-05-06 17:38:00,SystemResetWarning,0811.1,4.99,000.00,020.6,019.8,000.0,028.9,022.3,013.4,0000.0,0011.27,0001.08,0000.16
2024-05-06 17:39:00,SystemResetWarning,0811.3,4.99,000.00,020.6,019.8,000.0,028.9,022.2,013.7,0000.0,0010.38,0001.02,0000.16
2024-05-06 17:40:00,SystemResetWarning,0811.4,4.99,000.00,020.6,019.8,000.0,028.9,022.2,014.0,0000.0,0009.50,0000.95,0000.16
2024-05-06 17:41:00,SystemResetWarning,0811.1,5.00,000.00,020.6,019.8,000.0,028.9,022.2,013.7,0000.0,0008.43,0000.91,0000.16
2024-05-06 17:42:00,SystemResetWarning,0811.2,5.01,000.00,020.6,019.8,000.0,028.9,022.2,013.3,0000.0,0007.91,0000.90,0000.17
2024-05-06 17:43:00,SystemResetWarning,0810.9,5.00,000.00,020.6,019.8,000.0,028.9,022.2,013.5,0000.0,0007.88,0000.86,0000.17
2024-05-06 17:44:00,SystemResetWarning,0810.8,5.00,000.00,020.6,019.8,000.0,028.9,022.2,013.5,0000.0,0008.33,0000.82,0000.16
2024-05-06 17:45:00,SystemResetWarning,0810.6,4.99,000.00,020.6,019.8,000.0,028.9,022.2,013.2,0000.0,0008.49,0000.86,0000.17
2024-05-06 17:46:00,SystemResetWarning,0810.7,5.02,000.00,020.6,019.8,000.0,028.9,022.2,012.9,0000.0,0008.96,0001.01,0000.18
2024-05-06 17:47:00,SystemResetWarning,0810.7,4.99,000.00,020.5,019.8,000.0,028.8,022.2,013.2,0000.0,0009.36,0001.07,0000.18
2024-05-06 17:48:00,SystemResetWarning,0810.8,4.99,000.00,020.5,019.8,000.0,028.8,022.2,012.8,0000.0,0009.53,0001.14,0000.18
2024-05-06 17:49:00,SystemResetWarning,0811.0,5.00,000.00,020.5,019.8,000.0,028.8,022.2,012.6,0000.0,0009.53,0001.36,0000.19
2024-05-06 17:50:00,SystemResetWarning,0811.0,5.01,000.00,020.5,019.8,000.0,028.8,022.2,013.0,0000.0,0009.81,0001.57,0000.20
2024-05-06 17:51:00,SystemResetWarning,0811.1,5.01,000.00,020.5,019.8,000.0,028.8,022.2,013.1,0000.0,0010.18,0001.67,0000.20
2024-05-06 17:52:00,SystemResetWarning,0811.2,5.00,000.00,020.5,019.8,000.0,028.8,022.2,013.4,0000.0,0010.38,0001.70,0000.20
2024-05-06 17:53:00,SystemResetWarning,0811.4,4.99,000.00,020.5,019.7,000.0,028.8,022.2,013.6,0000.0,0010.38,0001.70,0000.19
2024-05-06 17:54:00,SystemResetWarning,0811.3,4.99,000.00,020.5,019.8,000.0,028.8,022.2,013.5,0000.0,0010.13,0001.72,0000.20
2024-05-06 17:55:00,SystemResetWarning,0811.3,5.00,000.00,020.5,019.8,000.0,028.8,022.2,013.5,0000.0,0009.42,0001.71,0000.20
2024-05-06 17:56:00,SystemResetWarning,0811.2,5.01,000.00,020.5,019.8,000.0,028.8,022.2,013.3,0000.0,0008.45,0001.65,0000.18
2024-05-06 17:57:00,SystemResetWarning,0811.1,5.00,000.00,020.5,019.8,000.0,028.8,022.2,013.1,0000.0,0008.12,0001.50,0000.17
2024-05-06 17:58:00,SystemResetWarning,0811.0,5.00,000.00,020.5,019.8,000.0,028.8,022.2,013.6,0000.0,0007.79,0001.36,0000.16
2024-05-06 17:59:00,SystemResetWarning,0811.1,5.00,000.00,020.5,019.8,000.0,028.8,022.2,013.2,0000.0,0007.56,0001.23,0000.15
